STARLINK-32473, 62049

Orbit data source: Space-Track

STARLINK-32473, 62049 is a payload satellite owned by SpaceX/Seattle (US) in LEO that was launched on Thu, 21 Nov 2024 UTC via an FALCON 9 launch vehicle from the Air Force Eastern Test Range (AFETR). Payload-class satellites include a variety of spacecraft equipped with specific instruments for various scientific and technological missions. These include communications satellites like Starlink; space stations such as the ISS; scientific satellites like the Hubble; Earth observation satellites from companies like Planet Labs, Umbra, and HawkEye 360; GPS; miniature CubeSats for education and research; and military/defense satellites.

Loading next visibility...
Identifier
62049, 2024-216T
Orbit
LEO
Last TLE update
11 hours ago
Origin
Manufacturer
SpaceX/Seattle
Mission
Operational Commercial Communications
Bus & Motor
STARLINK V2M, Unknown motor
Mass
730 kg wet, ~700 kg dry
Launch date (UTC)
2024-11-21 (7 months ago)
Launch vehicle
FALCON 9
Launch site
Air Force Eastern Test Range (AFETR)
Object type
Payload
Rocket body
Debris
Shape & HBR
Box + 2 Pan, 29 m
Radar Cross Section
36.964 m², Large (>1 m²)

Expand to show TLE details & history

TLE from 11 hours ago
0 STARLINK-32473
1 62049U 24216T   25186.45648474  .00019390  00000-0  69405-3 0  9999
2 62049  43.0011 212.6444 0001635 273.9191  86.1474 15.28431438 34907
Epoch: 2025-07-05T10:57Z
TLE epoch observation values (Epoch: 2025-07-05T10:57:20.281Z)
Latitude
-0.00002°
Longitude
124.61561°
Altitude
480.201 km
Speed
7.627 km/s
True Right ascension
14h 10m 34s
True Declination
0° 00' 00"
Sunlit
Object was in daylight at epoch
Visualization orbit readout
Latitude
-42.34882°
Longitude
18.5452°
Altitude
492.39 km
Speed
7.62 km/s
Apparent Right ascension
02h 29m 41s
Apparent Declination
-70° 55' 43"
Sunlit
Object is in daylight
Visualization observer readout
Local Sidereal Time
09:25:55
Azimuth
205.187° SW
Elevation
-41.861°
Doppler factor
1
Orbital elements
Apogee altitude
483.568 km
Perigee altitude
481.325 km
Semi-major axis
6,860.583 km
Eccentricity
0.00016
Inclination
43.0011°
RAAN
212.6444°
Arg. of periapsis
273.9191°
True anomaly
Unknown
Mean anomaly
86.1474°
Eccentric anomaly
Unknown
Mean motion
3.81946 °/min
Orbital period
94.25 mins
BSTAR
0.00069405
Loading maneuver chart data...
Loading SW <> Apogee altitude chart data...
Loading historical data...
Loading historical data...
Loading historical data...
Loading historical data...
Loading historical data...
Loading historical data...
Loading historical data...

STARLINK-32473 Visibility forecast

Observer location: undefined°, undefined°

Span
Click to sort rows by Start time (UTC) header in descending order
Start Az.
Max El. time (UTC)
Max El. Az.
Max El.
End time (UTC)
End Az.
5 mins2025-07-06 04:23:53.576Z187.553° SSW2025-07-06 04:25:53.576Z149.342° SSE19.717°2025-07-06 04:28:53.576Z95.125° ESE
5 mins2025-07-06 06:02:53.576Z247.927° W2025-07-06 06:04:53.576Z86.337° E44.156°2025-07-06 06:07:53.576Z72.42° E
5 mins2025-07-06 07:41:53.576Z293.357° NW2025-07-06 07:43:53.576Z11.171° NNE37.746°2025-07-06 07:46:53.576Z73.977° E
5 mins2025-07-06 09:20:53.576Z292.326° WNW2025-07-06 09:22:53.576Z36.3° NE44.367°2025-07-06 09:25:53.576Z102.643° ESE
4 mins2025-07-06 10:59:53.576Z252.908° W2025-07-06 11:01:53.576Z199.922° SSW24.708°2025-07-06 11:03:53.576Z159.879° S
|